BULGARIASAT-1

Last updated on Jan. 20, 2020, 4:31 a.m. UTC

1 42801U 17038A   20019.81374773  .00000006  00000-0  00000+0 0  9991
2 42801   0.0264 283.5183 0002576  14.7924 115.1865  1.00272472  9445
UTC
Height (km)
Latitude
Longitude
Inclination
Orbital Period
UTC large
Height (km)
Speed (km/s)
/
Latitude / Longitude
Inclination (degrees)
Orbital Period (minutes)
Azimuth
Elevation
Range (km)
Doppler Factor
iOS Compass Heading
iOS Angle

Next 30 passes for location: Hong Kong

Rise time Rise Azimuth (degrees) Set time Set Azimuth (degrees) Duration Max altitude (degrees)

No matching passes for this satellites